(43902) = 1995 VX4 = 1997 CV23

Discovered at Kitt Peak on 1995-11-14 by Spacewatch.

Orbit

Orbit type: Main Belt

Note: WebGL enabled browser required.

epoch2024-03-31.0
epoch JD2460400.5
perihelion date2020-12-16.27276
perihelion JD2459199.77277
argument of perihelion (°)140.40541
ascending node (°)124.95166
inclination (°)3.84303
eccentricity0.1664310
perihelion distance (AU)2.0154753
Tisserand w.r.t. Jupiter3.5
ΔV w.r.t. Earth (km/sec)8.9
semimajor axis (AU)2.4178865
mean anomaly (°)314.77089
mean daily motion (°/day)0.26215020
aphelion distance (AU)2.820
period (years)3.76
P-vector [x]-0.07977109
P-vector [y]-0.93071008
P-vector [z]-0.35695282
Q-vector [x]0.99529832
Q-vector [y]-0.05463325
Q-vector [z]-0.07997786
absolute magnitude15.83
phase slope0.15
uncertainty0
referenceE2024-GJ9
observations used1148
oppositions21
arc length (days)10928
first opposition used1994
last opposition used2024
residual rms (arc-secs)0.71
perturbers coarse indicatorM-v
perturbers precise indicator003Ek
first observation date used1994-05-13.0
last observation date used2024-04-13.0
computer nameMPCLINUX
JD of orbit computation2456966.751346
perihelion JD uncertainty (days)5.5186E-05
argument of perihelion uncertainty (°)6.8468E-05
ascending node uncertainty (°)6.7235E-05
inclination uncertainty (°)3.8389E-06
eccentricity uncertainty 3.5014E-08
perihelion distance uncertainty (AU)8.5032E-08
Minimum Orbit Intersection Distances (in AU)
for orbit epoch: 2460400.5, reference: E2024-GJ9
Mercury1.55336
Venus1.29031
Earth1.00123
Mars0.52885
Jupiter2.25497
Saturn6.22362
Uranus15.8868
Neptune27.0932

Observations

1115 total observations over interval: 1994 05 13.33694 – 2024 03 19.606743
These data are available for download (format description).

Date (UT) J2000 RA J2000 Dec Magn Location Ref
1994 05 13.33694 15 07 37.78 -10 04 30.4 18.1 V 691 – Steward Observatory, Kitt Peak-Spacewatch MPC 29227
1994 05 13.36049 15 07 36.41 -10 04 25.8   691 – Steward Observatory, Kitt Peak-Spacewatch MPC 29227
1994 05 13.38248 15 07 35.14 -10 04 21.6   691 – Steward Observatory, Kitt Peak-Spacewatch MPC 29227
1995 11 14.23225 02 05 53.45 +06 23 28.0   691 – Steward Observatory, Kitt Peak-Spacewatch MPC 26282
1995 11 14.25420 02 05 52.32 +06 23 24.0 19.7 V 691 – Steward Observatory, Kitt Peak-Spacewatch MPC 26282
1995 11 14.27537 02 05 51.26 +06 23 20.0   691 – Steward Observatory, Kitt Peak-Spacewatch MPC 26282
1995 11 19.20468 02 02 02.28 +06 09 33.7   691 – Steward Observatory, Kitt Peak-Spacewatch MPC 26282
1995 11 19.22573 02 02 01.36 +06 09 30.6 20.1 V 691 – Steward Observatory, Kitt Peak-Spacewatch MPC 26282
1995 11 19.24668 02 02 00.41 +06 09 27.5   691 – Steward Observatory, Kitt Peak-Spacewatch MPC 26282
1995 11 25.13234 01 58 07.14 +05 57 53.8 20.4 V 691 – Steward Observatory, Kitt Peak-Spacewatch MPC 26282
1995 11 25.15335 01 58 06.35 +05 57 51.7   691 – Steward Observatory, Kitt Peak-Spacewatch MPC 26282
1995 11 25.17432 01 58 05.59 +05 57 49.8   691 – Steward Observatory, Kitt Peak-Spacewatch MPC 26282
1997 02 03.16830 08 22 25.85 +19 38 56.1 20.4 V 691 – Steward Observatory, Kitt Peak-Spacewatch MPS 81189
1997 02 03.19035 08 22 24.47 +19 39 02.5 20.4 V 691 – Steward Observatory, Kitt Peak-Spacewatch MPS 81189
1997 02 03.21240 08 22 23.09 +19 39 08.8 20.2 V 691 – Steward Observatory, Kitt Peak-Spacewatch MPS 81189
1997 02 07.25970 08 18 22.68 +19 57 48.7 19.8 V 691 – Steward Observatory, Kitt Peak-Spacewatch MPC 29048
1997 02 07.28247 08 18 21.29 +19 57 54.8 20.5 V 691 – Steward Observatory, Kitt Peak-Spacewatch MPC 29048
1997 02 07.30484 08 18 19.97 +19 58 01.0 20.5 V 691 – Steward Observatory, Kitt Peak-Spacewatch MPC 29048
1997 02 14.18617 08 12 03.65 +20 26 52.9 20.5 V 691 – Steward Observatory, Kitt Peak-Spacewatch MPC 29048
1997 02 14.20869 08 12 02.45 +20 26 58.9 20.2 V 691 – Steward Observatory, Kitt Peak-Spacewatch MPC 29048
1997 02 14.23111 08 12 01.27 +20 27 04.4 19.8 V 691 – Steward Observatory, Kitt Peak-Spacewatch MPC 29048
1999 11 15.37295 03 54 20.07 +14 37 39.3 19.8   704 – Lincoln Laboratory ETS, New Mexico MPS 7263
1999 11 15.38726 03 54 19.24 +14 37 37.8 19.7   704 – Lincoln Laboratory ETS, New Mexico MPS 7263
1999 11 15.40169 03 54 18.29 +14 37 35.0 19.6   704 – Lincoln Laboratory ETS, New Mexico MPS 7263
1999 11 15.41601 03 54 17.36 +14 37 33.1 19.9   704 – Lincoln Laboratory ETS, New Mexico MPS 7263
2001 01 18.45260 10 32 49.82 +10 59 07.3 20.3 V 691 – Steward Observatory, Kitt Peak-Spacewatch MPS 24771
2001 01 18.47408 10 32 49.25 +10 59 12.7 20.5 V 691 – Steward Observatory, Kitt Peak-Spacewatch MPS 24771
2001 01 18.49550 10 32 48.66 +10 59 18.7 20.6 V 691 – Steward Observatory, Kitt Peak-Spacewatch MPS 24771
2001 02 01.34645 10 24 44.80 +12 13 10.7 19.3   704 – Lincoln Laboratory ETS, New Mexico MPS 24771
2001 02 01.36131 10 24 44.08 +12 13 15.8 18.9   704 – Lincoln Laboratory ETS, New Mexico MPS 24771
2001 02 01.37616 10 24 43.42 +12 13 22.1 19.1   704 – Lincoln Laboratory ETS, New Mexico MPS 24771
2001 02 01.39103 10 24 42.65 +12 13 29.0 19.1   704 – Lincoln Laboratory ETS, New Mexico MPS 24771
2001 02 02.33110 10 24 00.14 +12 19 20.5 18.7   704 – Lincoln Laboratory ETS, New Mexico MPS 24771
2001 02 02.34600 10 23 59.44 +12 19 26.1 18.9   704 – Lincoln Laboratory ETS, New Mexico MPS 24771
2001 02 02.36091 10 23 58.70 +12 19 32.3 18.9   704 – Lincoln Laboratory ETS, New Mexico MPS 24771
2001 02 02.37582 10 23 58.01 +12 19 37.4 18.6   704 – Lincoln Laboratory ETS, New Mexico MPS 24771
2001 02 15.06255 10 12 55.64 +13 44 50.7 19.0 V 012 – Uccle MPS 26320
2001 02 15.06868 10 12 55.31 +13 44 52.8 18.8 V 012 – Uccle MPS 26320
2001 02 15.07473 10 12 54.93 +13 44 55.4 19.3 V 012 – Uccle MPS 26320
2001 02 15.08704 10 12 54.20 +13 45 01.3 19.3 V 012 – Uccle MPS 26320
2001 02 17.30426 10 10 47.17 +14 00 24.3 18.4   704 – Lincoln Laboratory ETS, New Mexico MPS 26320
2001 02 17.31840 10 10 46.38 +14 00 30.4 18.9   704 – Lincoln Laboratory ETS, New Mexico MPS 26320
2001 02 17.33253 10 10 45.50 +14 00 36.9 18.9   704 – Lincoln Laboratory ETS, New Mexico MPS 26320
2001 02 17.36076 10 10 43.79 +14 00 48.9 19.5   704 – Lincoln Laboratory ETS, New Mexico MPS 26320
2001 02 20.35675 10 07 49.69 +14 21 24.0 18.7   704 – Lincoln Laboratory ETS, New Mexico MPS 26320
2001 02 20.37096 10 07 48.80 +14 21 29.9 19.7   704 – Lincoln Laboratory ETS, New Mexico MPS 26320
2001 02 20.39957 10 07 47.12 +14 21 41.9 19.2   704 – Lincoln Laboratory ETS, New Mexico MPS 26320
2001 02 21.30572 10 06 54.37 +14 27 51.4 19.3 V 691 – Steward Observatory, Kitt Peak-Spacewatch MPS 26320
2001 02 21.32745 10 06 53.05 +14 28 00.0 20.1 V 691 – Steward Observatory, Kitt Peak-Spacewatch MPS 26320
2001 02 21.34888 10 06 51.76 +14 28 08.8 20.2 V 691 – Steward Observatory, Kitt Peak-Spacewatch MPS 26320
2001 03 19.20163 09 45 10.09 +16 48 00.3 19.3   704 – Lincoln Laboratory ETS, New Mexico MPS 27325
2001 03 19.21234 09 45 09.66 +16 48 04.2 19.2   704 – Lincoln Laboratory ETS, New Mexico MPS 27325
2001 03 19.21473 09 45 09.68 +16 48 03.7 19.1   704 – Lincoln Laboratory ETS, New Mexico MPS 27325
2001 03 19.22515 09 45 09.27 +16 48 05.9 18.6   704 – Lincoln Laboratory ETS, New Mexico MPS 27325
2001 03 19.22885 09 45 09.10 +16 48 05.7 19.1   704 – Lincoln Laboratory ETS, New Mexico MPS 27325
2001 03 19.23795 09 45 08.74 +16 48 08.2 18.9   704 – Lincoln Laboratory ETS, New Mexico MPS 27325
2001 03 19.24236 09 45 08.64 +16 48 08.8 19.4   704 – Lincoln Laboratory ETS, New Mexico MPS 27325
2002 07 23.44377 22 17 45.01 -12 10 22.4 19.1   644 – Palomar Mountain/NEAT MPS 59529
2002 07 23.45421 22 17 44.71 -12 10 25.8 18.8   644 – Palomar Mountain/NEAT MPS 59529
2002 07 23.46461 22 17 44.38 -12 10 29.2 18.6   644 – Palomar Mountain/NEAT MPS 59529
2002 08 03.39052 22 11 10.91 -13 18 30.9 17.6   644 – Palomar Mountain/NEAT MPS 59529
2002 08 03.40142 22 11 10.41 -13 18 35.5 17.5   644 – Palomar Mountain/NEAT MPS 59529
2002 08 03.41227 22 11 09.92 -13 18 40.0 17.6   644 – Palomar Mountain/NEAT MPS 59529
2002 08 12.33532 22 04 00.49 -14 21 50.8 17.4 R 699 – Lowell Observatory-LONEOS MPS 59529
2002 08 12.34931 22 03 59.74 -14 21 56.7   699 – Lowell Observatory-LONEOS MPS 59529
2002 08 12.36332 22 03 58.99 -14 22 03.1   699 – Lowell Observatory-LONEOS MPS 59529
2002 08 12.37738 22 03 58.20 -14 22 09.1   699 – Lowell Observatory-LONEOS MPS 59529
2002 08 14.30019 22 02 18.39 -14 35 59.3 17.8   704 – Lincoln Laboratory ETS, New Mexico MPS 59529
2002 08 14.31565 22 02 17.50 -14 36 05.7 18.0   704 – Lincoln Laboratory ETS, New Mexico MPS 59529
2002 08 14.33110 22 02 16.65 -14 36 12.1 17.9   704 – Lincoln Laboratory ETS, New Mexico MPS 59529
2002 08 14.34656 22 02 15.78 -14 36 18.5 18.3   704 – Lincoln Laboratory ETS, New Mexico MPS 59529
2002 08 29.34692 21 49 15.68 -16 16 28.0 17.7   644 – Palomar Mountain/NEAT MPS 62375
2002 08 29.36820 21 49 14.61 -16 16 35.5 17.6   644 – Palomar Mountain/NEAT MPS 62375
2002 08 29.38944 21 49 13.52 -16 16 42.8 17.8   644 – Palomar Mountain/NEAT MPS 62375
2002 09 05.19921 21 44 06.16 -16 53 15.6 18.4   704 – Lincoln Laboratory ETS, New Mexico MPS 62375
2002 09 05.21379 21 44 05.53 -16 53 20.4 18.5   704 – Lincoln Laboratory ETS, New Mexico MPS 62375
2002 09 05.22843 21 44 04.94 -16 53 24.9 18.5   704 – Lincoln Laboratory ETS, New Mexico MPS 62375
2002 09 05.24317 21 44 04.25 -16 53 28.8 18.6   704 – Lincoln Laboratory ETS, New Mexico MPS 62375
2002 09 05.25840 21 44 03.54 -16 53 32.6 18.3   704 – Lincoln Laboratory ETS, New Mexico MPS 62375
2002 09 06.19693 21 43 25.61 -16 57 59.4 18.7   704 – Lincoln Laboratory ETS, New Mexico MPS 62375
2002 09 06.21161 21 43 24.98 -16 58 03.4 18.8   704 – Lincoln Laboratory ETS, New Mexico MPS 62375
2002 09 06.24135 21 43 23.71 -16 58 11.3 19.0   704 – Lincoln Laboratory ETS, New Mexico MPS 62375
2002 09 06.25632 21 43 23.18 -16 58 15.2 19.0   704 – Lincoln Laboratory ETS, New Mexico MPS 62375
2002 09 14.35295 21 38 49.05 -17 29 41.3 19.6   608 – Haleakala-AMOS MPS 62375
